Location: Unspecified
(0.0000°N, 0.0000°E)
Time: 02:36:39
(UTC+00:00)

O/OREOS (USA 219) - Pass Details

Date: 13 December 2019
Orbit: 621 x 646 km, 72.0° (Epoch: 22 May)

Event Time Altitude Azimuth Distance (km) Brightness Sun altitude
Rises 20:46:24 0° 221° (SW) 2,921 ? -38.9°
Reaches altitude 10° 20:49:10 10° 238° (WSW) 2,016 ? -39.5°
Enters shadow 20:49:46 12° 244° (WSW) 1,859 ? -39.6°
